Weather History for Jaffrey, NH

Change the Weather History Date:

Saturday, February 9, 2013

  Actual Average Record
Temperature  
Mean Temperature 14 °F -  
Max Temperature 19 °F 31 °F 46 °F (2005)
Min Temperature 10 °F 11 °F 0 °F (2003)
Degree Days  
Heating Degree Days 50    
Moisture  
Dew Point 8 °F    
Average Humidity 77    
Maximum Humidity 93    
Minimum Humidity 49    
Precipitation  
Precipitation 0.62 in - - ()
Sea Level Pressure  
Sea Level Pressure 29.84 in    
Wind  
Wind Speed 8 mph (NNW)    
Max Wind Speed 13 mph    
Max Gust Speed 26 mph    
Visibility 3 miles    
Events Fog , Snow    
Averages and records for this station are not official NWS values.
T = Trace of Precipitation, MM = Missing Value Source: NWS Daily Summary

Daily Weather History Graph

Daily Weather History Graph

Search for Another Location

Airport:

Trip Planner

Search our weather history database for the weather conditions in past years. The results will help you decide how hot, cold, wet, or windy it might be!

Date:

Astronomy

Feb. 09, 2013 Rise Set
Actual Time 6:52 AM EST 5:12 PM EST
Civil Twilight 6:23 AM EST 5:41 PM EST
Nautical Twilight 5:50 AM EST 6:14 PM EST
Astronomical Twilight 5:17 AM EST 6:47 PM EST
Moon 6:02 AM EST (2/9) 4:52 PM EST (2/9)
Length of Visible Light 11h 17m
Length of Day
10h 19m
Waning Crescent, 0% of the Moon is Illuminated
Feb 9
Waning Crescent
Feb 10
New
Feb 17
First Quarter
Feb 25
Full
Mar 4
Last Quarter

Hourly Weather History & Observations

Time (EST) Temp. Windchill Dew Point Humidity Pressure Visibility Wind Dir Wind Speed Gust Speed Precip Events Conditions
12:52 AM 12.9 °F - 10.9 °F 92% 29.74 in 0.2 mi North - - 0.15 in Fog Light Freezing Fog
1:52 AM 15.1 °F 3.3 °F 12.0 °F 88% 29.74 in 0.2 mi North 9.2 mph 26.5 mph 0.08 in Fog Light Freezing Fog
2:52 AM 16.0 °F 2.3 °F 14.0 °F 92% 29.74 in 0.2 mi North 12.7 mph 24.2 mph 0.11 in Fog Light Freezing Fog
3:52 AM 17.1 °F 6.6 °F 14.0 °F 88% 29.73 in 0.5 mi North 8.1 mph - 0.11 in Fog Light Freezing Fog
4:11 AM 17.6 °F 8.2 °F 14.0 °F 86% 29.66 in 0.5 mi Variable 6.9 mph 16.1 mph 0.02 in Fog Light Freezing Fog
4:22 AM 17.6 °F 9.3 °F 14.0 °F 86% 29.66 in 0.5 mi Variable 5.8 mph - 0.03 in Fog Light Freezing Fog
4:37 AM 15.8 °F 4.2 °F 14.0 °F 93% 29.67 in 0.5 mi North 9.2 mph - 0.05 in Fog Light Freezing Fog
4:52 AM 16.0 °F 5.3 °F 12.9 °F 88% 29.74 in 0.5 mi North 8.1 mph - 0.07 in Fog Light Freezing Fog
5:08 AM 15.8 °F 6.1 °F 12.2 °F 86% 29.67 in 0.8 mi Variable 6.9 mph 17.3 mph 0.01 in   Mist
5:27 AM 15.8 °F 5.1 °F 12.2 °F 86% 29.67 in 1.0 mi North 8.1 mph - 0.02 in   Mist
5:32 AM 15.8 °F 4.2 °F 12.2 °F 86% 29.67 in 1.2 mi NNW 9.2 mph 24.2 mph 0.02 in   Overcast
5:44 AM 15.8 °F 7.2 °F 12.2 °F 86% 29.67 in 1.5 mi Variable 5.8 mph 18.4 mph 0.02 in   Overcast
5:52 AM 16.0 °F 7.4 °F 12.0 °F 84% 29.74 in 1.5 mi Variable 5.8 mph - 0.02 in Snow Light Snow
6:11 AM 15.8 °F 6.1 °F 10.4 °F 79% 29.67 in 1.2 mi Variable 6.9 mph 18.4 mph 0.00 in Snow Light Snow
6:17 AM 15.8 °F 3.4 °F 10.4 °F 79% 29.68 in 1.0 mi NNW 10.4 mph 18.4 mph 0.01 in Snow Light Snow
6:24 AM 15.8 °F 8.6 °F 10.4 °F 79% 29.68 in 0.8 mi Variable 4.6 mph 16.1 mph 0.01 in Snow Light Snow
6:45 AM 14.0 °F 2.0 °F 10.4 °F 86% 29.69 in 0.8 mi North 9.2 mph - 0.02 in Snow Light Snow
6:52 AM 14.0 °F 3.9 °F 10.9 °F 88% 29.76 in 0.8 mi Variable 6.9 mph - 0.02 in Snow Light Snow
7:13 AM 14.0 °F 2.9 °F 10.4 °F 86% 29.70 in 0.8 mi North 8.1 mph - 0.01 in Snow Light Snow
7:22 AM 14.0 °F 2.0 °F 10.4 °F 86% 29.70 in 1.0 mi NNW 9.2 mph 18.4 mph 0.01 in Snow Light Snow
7:38 AM 14.0 °F 1.2 °F 10.4 °F 86% 29.72 in 0.5 mi NNW 10.4 mph 17.3 mph 0.01 in Fog , Snow Snow
7:52 AM 12.9 °F 3.8 °F 9.0 °F 84% 29.80 in 0.2 mi Variable 5.8 mph 19.6 mph 0.02 in Fog , Snow Heavy Snow
8:05 AM 12.2 °F 2.9 °F 8.6 °F 85% 29.73 in 0.2 mi Variable 5.8 mph 23.0 mph 0.00 in Fog , Snow Snow
8:52 AM 12.0 °F -0.4 °F 7.0 °F 80% 29.83 in 0.5 mi North 9.2 mph 16.1 mph 0.01 in Snow Snow
9:52 AM 10.9 °F 0.2 °F 7.0 °F 84% 29.85 in 0.5 mi Variable 6.9 mph 17.3 mph 0.01 in Fog , Snow Snow
10:52 AM 12.0 °F -1.3 °F 7.0 °F 80% 29.88 in 0.5 mi North 10.4 mph 18.4 mph 0.01 in Snow Snow
11:06 AM 12.2 °F -1.8 °F 8.6 °F 85% 29.81 in 0.2 mi North 11.5 mph 21.9 mph 0.00 in Fog , Snow Snow
11:52 AM 12.0 °F 2.7 °F 8.1 °F 84% 29.90 in 0.2 mi Variable 5.8 mph 21.9 mph 0.01 in Fog , Snow Snow
12:11 PM 12.2 °F 1.7 °F 6.8 °F 79% 29.82 in 0.5 mi Variable 6.9 mph 23.0 mph 0.00 in Snow Snow
12:22 PM 12.2 °F 1.7 °F 6.8 °F 79% 29.83 in 1.0 mi Variable 6.9 mph 24.2 mph 0.00 in Snow Light Snow
12:29 PM 14.0 °F -0.2 °F 6.8 °F 73% 29.83 in 1.5 mi NNW 12.7 mph 24.2 mph 0.00 in Snow Light Snow
12:36 PM 14.0 °F 3.9 °F 6.8 °F 73% 29.83 in 3.0 mi Variable 6.9 mph 21.9 mph 0.00 in Snow Light Snow
12:43 PM 14.0 °F 1.2 °F 6.8 °F 73% 29.84 in 1.8 mi NNW 10.4 mph 20.7 mph 0.00 in Snow Light Snow
12:50 PM 14.0 °F 2.9 °F 6.8 °F 73% 29.84 in 1.0 mi North 8.1 mph 26.5 mph 0.00 in Snow Light Snow
12:52 PM 14.0 °F 2.0 °F 8.1 °F 77% 29.91 in 1.0 mi NNW 9.2 mph 26.5 mph 0.00 in Snow Light Snow
1:02 PM 15.8 °F 3.4 °F 8.6 °F 73% 29.84 in 1.2 mi NNW 10.4 mph 24.2 mph 0.00 in Snow Light Snow
1:12 PM 15.8 °F 4.2 °F 8.6 °F 73% 29.84 in 2.0 mi NNW 9.2 mph 17.3 mph 0.00 in Snow Light Snow
1:23 PM 17.6 °F 6.4 °F 6.8 °F 63% 29.84 in 5.0 mi North 9.2 mph 18.4 mph 0.00 in Snow Light Snow
1:52 PM 18.0 °F 5.4 °F 6.1 °F 60% 29.94 in 7.0 mi NNW 11.5 mph 24.2 mph 0.00 in   Overcast
2:52 PM 19.0 °F 6.8 °F 6.1 °F 57% 29.97 in 10.0 mi North 11.5 mph 21.9 mph 0.00 in   Overcast
3:52 PM 19.0 °F 9.0 °F 5.0 °F 54% 30.01 in 8.0 mi NNW 8.1 mph 26.5 mph 0.00 in   Mostly Cloudy
4:52 PM 17.1 °F 3.6 °F 3.9 °F 56% 30.04 in 6.0 mi NNW 12.7 mph 26.5 mph 0.00 in   Clear
5:52 PM 15.1 °F 4.2 °F 1.9 °F 56% 30.10 in 10.0 mi North 8.1 mph 25.3 mph 0.00 in   Clear
6:52 PM 12.9 °F 3.8 °F 1.0 °F 59% 30.14 in 10.0 mi Variable 5.8 mph 18.4 mph 0.00 in   Clear
7:52 PM 10.9 °F -0.8 °F -0.0 °F 61% 30.17 in 10.0 mi NNW 8.1 mph 18.4 mph N/A   Clear
8:52 PM 10.9 °F 0.2 °F -0.9 °F 59% 30.20 in 10.0 mi Variable 6.9 mph - 0.00 in   Clear
9:52 PM 10.0 °F -1.9 °F -2.0 °F 58% 30.22 in 10.0 mi NNW 8.1 mph - N/A   Clear
10:52 PM 10.9 °F 2.9 °F -2.9 °F 54% 30.23 in 10.0 mi Variable 4.6 mph - N/A   Clear
11:52 PM 12.0 °F 2.7 °F -4.0 °F 49% 30.25 in 10.0 mi NNW 5.8 mph - N/A   Clear